[[{"header":{"parameterUnit":"m.s-1","parameterCategory":1,"la1":30.2991,"la2":30.254,"lo1":-89.0895,"lo2":-89.0444,"dy":0.0017,"dx":0.0017,"nx":28,"ny":28,"refTime":"2024-08-22T09:00:00:Z","depth":0,"parameterNumber":2,"parameterNumberName":"U-component_of_WINDS"},"data":[0,0,0,0,0,0,0,0,0,0,0,0,0,0,0,0,0,0,0,0,0,0,0,0,0,0,0,0,0,0,0,0,0,0,0,0,0,0,0,0,0,0,0,0,0,0,0,0,0,0,0,0,0,0,0,0,0,0,-1.7812,-1.7812,0,-1.7834,-1.7835,-1.7835,-1.7809,-1.7808,-1.7807,-1.7806,-1.7828,-1.7829,-1.7831,0,0,0,0,0,0,0,0,0,0,0,0,0,-1.7746,-1.7747,-1.7812,-1.7812,-1.7812,-1.7834,-1.7835,-1.7835,-1.7809,-1.7808,-1.7807,-1.7806,-1.7827,-1.7829,-1.7831,0,0,0,0,0,0,0,0,0,0,0,0,0,-1.7772,-1.7748,-1.7812,-1.7802,-1.7802,-1.7834,-1.7835,-1.7835,-1.7809,-1.7808,-1.7806,-1.7805,-1.7827,-1.7829,-1.7831,-1.7874,0,0,-1.7838,-1.7839,0,0,0,0,0,0,0,0,-1.7771,-1.7775,-1.7803,-1.7803,-1.7802,-1.7817,-1.7819,-1.7848,-1.781,-1.7806,-1.7806,-1.7804,-1.7825,-1.7828,-1.7835,-1.7875,-1.7876,-1.7838,-1.7839,-1.784,-1.7841,0,0,0,0,0,0,0,-1.7769,-1.7773,-1.7821,-1.7804,-1.7803,-1.7797,-1.7799,-1.7825,-1.7824,-1.7806,-1.7805,-1.7808,-1.7825,-1.7833,-1.7835,-1.7876,-1.7838,-1.784,-1.7841,-1.7842,-1.7954,-1.7956,0,0,0,0,0,0,-1.7768,-1.7772,-1.782,-1.7821,-1.7783,-1.7799,-1.7801,-1.7814,-1.7823,-1.7823,-1.7809,-1.7806,-1.783,-1.7833,-1.7836,-1.7888,-1.784,-1.7843,-1.7844,-1.7953,-1.7955,-1.7956,0,0,0,0,0,0,-1.7767,-1.7773,-1.7819,-1.7796,-1.7802,-1.7802,-1.7816,-1.7815,-1.7823,-1.7825,-1.7825,-1.7818,-1.7829,-1.7833,-1.7865,-1.7889,-1.7844,-1.7846,-1.7951,-1.7953,-1.7956,-1.7992,0,0,0,0,0,0,-1.7765,-1.7773,-1.7789,-1.7797,-1.7803,-1.7848,-1.7817,-1.7817,-1.7827,-1.7824,-1.7833,-1.7833,-1.7828,-1.7862,-1.7867,-1.7891,-1.7847,-1.7949,-1.7952,-1.7955,-1.7989,-1.7996,-1.8001,0,0,0,0,0,-1.7763,-1.7798,-1.779,-1.7796,-1.7823,-1.7849,-1.7853,-1.7847,-1.7829,-1.7846,-1.7847,-1.7833,-1.7885,-1.7866,-1.7871,-1.7896,-1.7947,-1.7951,-1.7955,-1.7986,-1.7994,-1.8001,0,0,0,0,0,0,-1.7791,-1.7798,-1.779,-1.7828,-1.7839,-1.7845,-1.7866,-1.7855,-1.787,-1.7867,-1.7858,-1.786,-1.7895,-1.7898,-1.7877,-1.7939,-1.7913,-1.7918,-1.7935,-1.7943,-1.7949,-1.7948,-1.7849,0,0,0,0,0,-1.7802,-1.7823,-1.7828,-1.7861,-1.7867,-1.7866,-1.7876,-1.7871,-1.7881,-1.7885,-1.7889,-1.7899,-1.7918,-1.793,-1.7948,-1.7989,-1.7991,-1.8009,-1.8015,-1.802,-1.8025,-1.8048,-1.8057,-1.7969,-1.7969,-1.7969,0,0,-1.7824,-1.7831,-1.7844,-1.7867,-1.7874,-1.7896,-1.7869,-1.7893,-1.791,-1.7889,-1.792,-1.7923,-1.7934,-1.7972,-1.7988,-1.7976,-1.805,-1.8025,-1.8029,-1.8031,-1.8053,-1.8062,-1.8069,-1.7971,-1.7971,-1.797,0,0,-1.7877,-1.7883,-1.7913,-1.7921,-1.7933,-1.7932,-1.7939,-1.7948,-1.7949,-1.7981,-1.7966,-1.7985,-1.8017,-1.8026,-1.8035,-1.8092,-1.808,-1.8098,-1.8131,-1.8154,-1.8161,-1.8167,-1.8189,-1.8196,-1.8102,-1.8103,-1.8103,0,-1.7903,-1.7936,-1.7929,-1.7954,-1.7965,-1.7948,-1.7978,-1.7986,-1.8003,-1.8011,-1.7997,-1.8038,-1.8044,-1.8084,-1.8098,-1.8105,-1.8114,-1.8097,-1.816,-1.8166,-1.8172,-1.8193,-1.8201,-1.8105,-1.8104,-1.8104,-1.8104,0,-1.7968,-1.7991,-1.8013,-1.8031,-1.8044,-1.8072,-1.8069,-1.8083,-1.8077,-1.8078,-1.8111,-1.8117,-1.8137,-1.8145,-1.8139,-1.8185,-1.8177,-1.8162,-1.8136,-1.8183,-1.8202,-1.821,-1.8108,-1.8107,-1.8106,-1.8106,0,0,-1.8038,-1.8053,-1.8061,-1.807,-1.8083,-1.81,-1.8127,-1.8147,-1.816,-1.8172,-1.8195,-1.8224,-1.821,-1.822,-1.8214,-1.8235,-1.8281,-1.8217,-1.8217,-1.823,-1.8335,-1.8347,-1.8356,-1.8273,-1.8275,-1.8276,-1.8334,0,-1.8092,-1.814,-1.8135,-1.818,-1.8202,-1.8187,-1.8211,-1.8221,-1.8223,-1.8242,-1.8243,-1.8264,-1.8244,-1.825,-1.8269,-1.8272,-1.8302,-1.8267,-1.8295,-1.8296,-1.8294,-1.8366,-1.8379,-1.8433,-1.8341,-1.8343,-1.8344,0,-1.816,-1.8177,-1.8225,-1.8236,-1.8245,-1.8266,-1.8285,-1.8302,-1.8314,-1.8314,-1.8326,-1.8317,-1.8345,-1.8319,-1.8357,-1.8334,-1.8345,-1.8348,-1.835,-1.8353,-1.8323,-1.8372,-1.8451,-1.8459,-1.8355,-1.8354,-1.8353,0,-1.8209,-1.8242,-1.8276,-1.8283,-1.8297,-1.8312,-1.8318,-1.8329,-1.8342,-1.8357,-1.8366,-1.8384,-1.8394,-1.8409,-1.8406,-1.8387,-1.8446,-1.8419,-1.8447,-1.8447,-1.8461,-1.846,-1.8543,-1.8466,-1.8466,-1.8466,-1.8466,0,-1.8269,-1.83,-1.8298,-1.8319,-1.8353,-1.8347,-1.8381,-1.8385,-1.8394,-1.8416,-1.8403,-1.8424,-1.8417,-1.8438,-1.8435,-1.8468,-1.8473,-1.8474,-1.8473,-1.8476,-1.8476,-1.8483,-1.848,-1.8468,-1.8468,-1.8467,-1.8467,0,-1.8329,-1.8329,-1.8365,-1.8375,-1.8378,-1.8403,-1.8411,-1.8431,-1.8432,-1.846,-1.8466,-1.8467,-1.8491,-1.8489,-1.8514,-1.8513,-1.8555,-1.8548,-1.8551,-1.855,-1.8579,-1.8577,-1.8671,-1.8684,-1.8597,-1.8598,-1.8599,0,-1.8368,-1.8392,-1.8405,-1.8419,-1.8426,-1.8449,-1.8462,-1.8457,-1.8471,-1.8488,-1.8506,-1.8528,-1.8546,-1.8584,-1.8587,-1.8607,-1.8603,-1.8634,-1.8605,-1.8608,-1.8605,-1.8604,-1.8607,-1.864,-1.8641,-1.8642,-1.8642,0,-1.8439,-1.8438,-1.8458,-1.8478,-1.8495,-1.851,-1.8524,-1.8536,-1.8533,-1.855,-1.8574,-1.8588,-1.8615,-1.8638,-1.8658,-1.8664,-1.8653,-1.8651,-1.8659,-1.8663,-1.8664,-1.8665,-1.8568,-1.8649,-1.8649,-1.8648,-1.8648,-1.8648,-1.849,-1.8511,-1.8524,-1.8547,-1.8557,-1.8571,-1.8591,-1.8595,-1.8615,-1.8638,-1.8634,-1.8661,-1.8674,-1.8699,-1.8707,-1.8729,-1.8717,-1.8728,-1.8731,-1.8734,-1.8739,-1.866,-1.8732,-1.8732,-1.8732,-1.8731,-1.8731,0,-1.8561,-1.8569,-1.859,-1.8611,-1.863,-1.8618,-1.8634,-1.865,-1.8675,-1.8687,-1.8706,-1.8734,-1.8757,-1.8762,-1.8784,-1.88,-1.8796,-1.8806,-1.8805,-1.8807,-1.8747,-1.8738,-1.8809,-1.8809,-1.8809,-1.8809,-1.8809,-1.8809,-1.86,-1.8635,-1.8636,-1.8677,-1.8684,-1.8712,-1.8722,-1.8735,-1.8745,-1.8778,-1.8797,-1.8801,-1.8811,-1.8833,-1.8854,-1.8855,-1.8864,-1.8876,-1.8876,-1.8819,-1.8811,-1.8804,-1.8796,-1.8878,-1.8878,-1.8934,-1.8935,-1.8935]},{"header":{"parameterUnit":"m.s-1","parameterCategory":1,"la1":30.2991,"la2":30.254,"lo1":-89.0895,"lo2":-89.0444,"dy":0.0017,"dx":0.0017,"nx":28,"ny":28,"refTime":"2024-08-22T09:00:00:Z","depth":0,"parameterNumber":3,"parameterNumberName":"V-component_of_WINDS"},"data":[0,0,0,0,0,0,0,0,0,0,0,0,0,0,0,0,0,0,0,0,0,0,0,0,0,0,0,0,0,0,0,0,0,0,0,0,0,0,0,0,0,0,0,0,0,0,0,0,0,0,0,0,0,0,0,0,0,0,-2.3022,-2.3023,0,-2.3089,-2.309,-2.3091,-2.3081,-2.308,-2.3079,-2.3078,-2.3145,-2.3148,-2.315,0,0,0,0,0,0,0,0,0,0,0,0,0,-2.2883,-2.2886,-2.3022,-2.3023,-2.3023,-2.3089,-2.309,-2.3091,-2.3081,-2.308,-2.3079,-2.3077,-2.3144,-2.3147,-2.3151,0,0,0,0,0,0,0,0,0,0,0,0,0,-2.2946,-2.2887,-2.3022,-2.3027,-2.3028,-2.3089,-2.309,-2.3091,-2.3082,-2.308,-2.3078,-2.3077,-2.3143,-2.3147,-2.3151,-2.3211,0,0,-2.3164,-2.3166,0,0,0,0,0,0,0,0,-2.2943,-2.2951,-2.3025,-2.3027,-2.3028,-2.3075,-2.3066,-2.3131,-2.3082,-2.3061,-2.3078,-2.3076,-2.3123,-2.3129,-2.3145,-2.3214,-2.3217,-2.3164,-2.3167,-2.3169,-2.317,0,0,0,0,0,0,0,-2.2938,-2.2948,-2.3048,-2.3026,-2.3028,-2.3025,-2.3032,-2.3078,-2.3101,-2.3063,-2.3062,-2.3071,-2.3123,-2.3141,-2.3146,-2.3218,-2.3164,-2.3168,-2.3171,-2.3172,-2.3339,-2.3341,0,0,0,0,0,0,-2.2933,-2.2945,-2.3046,-2.305,-2.298,-2.3029,-2.3037,-2.3062,-2.31,-2.3104,-2.3072,-2.307,-2.3134,-2.3141,-2.3149,-2.3222,-2.3169,-2.3173,-2.3175,-2.3337,-2.3339,-2.3341,0,0,0,0,0,0,-2.293,-2.2942,-2.3043,-2.2997,-2.301,-2.3033,-2.3061,-2.3064,-2.3081,-2.3107,-2.3111,-2.3086,-2.3133,-2.3143,-2.3196,-2.3224,-2.3175,-2.3179,-2.3335,-2.3338,-2.334,-2.3367,0,0,0,0,0,0,-2.2926,-2.2941,-2.2964,-2.2998,-2.3013,-2.309,-2.3063,-2.3066,-2.3089,-2.3087,-2.3121,-2.3125,-2.3133,-2.3189,-2.32,-2.3229,-2.3182,-2.3332,-2.3336,-2.3339,-2.3364,-2.3371,-2.3377,0,0,0,0,0,-2.2921,-2.2969,-2.2966,-2.2978,-2.3043,-2.3092,-2.31,-2.3109,-2.3091,-2.3115,-2.3131,-2.3124,-2.3219,-2.3195,-2.3206,-2.3237,-2.3331,-2.3335,-2.3339,-2.3361,-2.337,-2.3376,0,0,0,0,0,0,-2.2937,-2.2973,-2.297,-2.3031,-2.3058,-2.309,-2.312,-2.3117,-2.3149,-2.3146,-2.3155,-2.3162,-2.3216,-2.3231,-2.3204,-2.3297,-2.3272,-2.3279,-2.3285,-2.3293,-2.3299,-2.3295,-2.3185,0,0,0,0,0,-2.2948,-2.2986,-2.3015,-2.3065,-2.3079,-2.3097,-2.3119,-2.3123,-2.3152,-2.3163,-2.3183,-2.3211,-2.3247,-2.327,-2.3305,-2.3366,-2.3373,-2.3392,-2.3399,-2.3403,-2.341,-2.3443,-2.3453,-2.3355,-2.3355,-2.3355,0,0,-2.2971,-2.2995,-2.3018,-2.3069,-2.3091,-2.3129,-2.3107,-2.3148,-2.3177,-2.3169,-2.3221,-2.3236,-2.3268,-2.3325,-2.3351,-2.3339,-2.3438,-2.3409,-2.3413,-2.3416,-2.3449,-2.3458,-2.3466,-2.3358,-2.3358,-2.3357,0,0,-2.3031,-2.3053,-2.3098,-2.312,-2.3154,-2.3166,-2.3176,-2.3209,-2.3219,-2.3271,-2.3266,-2.3299,-2.3361,-2.3384,-2.3403,-2.3472,-2.3467,-2.3482,-2.3516,-2.3548,-2.3556,-2.3563,-2.3588,-2.3597,-2.3488,-2.3488,-2.3488,0,-2.3055,-2.3113,-2.3121,-2.3164,-2.3186,-2.3181,-2.3226,-2.3247,-2.329,-2.3306,-2.3292,-2.337,-2.339,-2.3453,-2.347,-2.3485,-2.3498,-2.348,-2.3554,-2.3561,-2.3568,-2.3592,-2.3602,-2.349,-2.349,-2.349,-2.349,0,-2.3141,-2.3181,-2.3213,-2.3256,-2.3282,-2.3325,-2.3339,-2.3364,-2.3366,-2.3378,-2.3431,-2.3455,-2.3495,-2.351,-2.3511,-2.3573,-2.3565,-2.3552,-2.3528,-2.3579,-2.3602,-2.3611,-2.3493,-2.3492,-2.3492,-2.3491,0,0,-2.3216,-2.3262,-2.3273,-2.3293,-2.3329,-2.336,-2.3403,-2.3442,-2.3464,-2.3493,-2.3529,-2.3581,-2.357,-2.3592,-2.3596,-2.3625,-2.3679,-2.3609,-2.361,-2.3622,-2.3748,-2.3759,-2.3769,-2.3674,-2.3676,-2.3678,-2.3746,0,-2.3281,-2.3358,-2.3366,-2.3435,-2.3472,-2.3467,-2.3504,-2.353,-2.3543,-2.3576,-2.3589,-2.3627,-2.3609,-2.3623,-2.365,-2.3666,-2.3704,-2.3661,-2.3709,-2.371,-2.3703,-2.3781,-2.3792,-2.3856,-2.3755,-2.3757,-2.3758,0,-2.3368,-2.3401,-2.3474,-2.3505,-2.3521,-2.3554,-2.3591,-2.3623,-2.3651,-2.3659,-2.3683,-2.3683,-2.3727,-2.3699,-2.3759,-2.373,-2.3749,-2.376,-2.3762,-2.3769,-2.3738,-2.3791,-2.3876,-2.3886,-2.3772,-2.3771,-2.377,0,-2.3417,-2.3479,-2.3531,-2.3547,-2.3584,-2.3608,-2.3625,-2.3652,-2.3675,-2.3706,-2.3722,-2.3757,-2.3777,-2.3804,-2.3814,-2.3793,-2.3874,-2.3847,-2.3881,-2.3881,-2.39,-2.3899,-2.3991,-2.391,-2.391,-2.3909,-2.3909,0,-2.349,-2.3535,-2.3553,-2.3585,-2.3635,-2.3643,-2.3692,-2.3707,-2.3731,-2.3765,-2.3762,-2.3794,-2.3804,-2.3838,-2.3845,-2.3894,-2.3902,-2.3909,-2.3911,-2.3911,-2.391,-2.3925,-2.3922,-2.3912,-2.3911,-2.3911,-2.391,0,-2.3554,-2.3568,-2.3624,-2.3655,-2.3663,-2.3699,-2.3725,-2.3755,-2.3767,-2.381,-2.3821,-2.3839,-2.3879,-2.389,-2.3937,-2.3942,-2.4,-2.3997,-2.3991,-2.3991,-2.4025,-2.4022,-2.4132,-2.4147,-2.4054,-2.4055,-2.4055,0,-2.3601,-2.3635,-2.367,-2.3693,-2.3711,-2.3748,-2.3772,-2.378,-2.3805,-2.384,-2.3867,-2.3905,-2.3937,-2.4,-2.4017,-2.4053,-2.4052,-2.4087,-2.4057,-2.4056,-2.4054,-2.4052,-2.4056,-2.4094,-2.4095,-2.4095,-2.4096,0,-2.3683,-2.3688,-2.3723,-2.376,-2.3788,-2.3818,-2.3846,-2.3865,-2.3877,-2.3905,-2.3946,-2.397,-2.4018,-2.4057,-2.4094,-2.411,-2.4105,-2.4105,-2.4115,-2.4116,-2.4112,-2.4116,-2.4008,-2.4103,-2.4102,-2.4102,-2.4102,-2.4101,-2.374,-2.3771,-2.3801,-2.3839,-2.3861,-2.3888,-2.3918,-2.3934,-2.3968,-2.4009,-2.4011,-2.4055,-2.4083,-2.4131,-2.4149,-2.4183,-2.4173,-2.4187,-2.4191,-2.4195,-2.4198,-2.4105,-2.4189,-2.4189,-2.4189,-2.4189,-2.4189,0,-2.3823,-2.3842,-2.3877,-2.3918,-2.3948,-2.3941,-2.3972,-2.3997,-2.4037,-2.4063,-2.4094,-2.4141,-2.4178,-2.4198,-2.4235,-2.4259,-2.4258,-2.4268,-2.4268,-2.4272,-2.4205,-2.4193,-2.4269,-2.4269,-2.4269,-2.4269,-2.4269,-2.4269,-2.387,-2.3922,-2.3931,-2.3993,-2.4011,-2.4055,-2.4073,-2.4098,-2.4119,-2.4171,-2.4203,-2.4215,-2.4239,-2.4278,-2.4311,-2.4316,-2.4331,-2.4343,-2.4346,-2.4284,-2.4276,-2.4268,-2.4258,-2.4345,-2.4346,-2.4411,-2.4411,-2.4412]}]]